Location: Lower Kingswood
(51.2667°N, 0.2167°W)
Time: 04:20:36
(UTC+00:00)

Cosmos 1937 Rocket - Pass Details

Date: 26 September 2023
Orbit: 744 x 779 km, 74.0° (Epoch: 29 November)

Event Time Altitude Azimuth Distance (km) Brightness Sun altitude
Exits shadow 03:01:10 41° 148° (SSE) 1,075 4.1 -26.1°
Maximum altitude 03:02:23 50° 107° (ESE) 950 4.1 -26.0°
Drops below altitude 10° 03:07:23 10° 33° (NNE) 2,292 6.8 -25.3°
Sets 03:09:49 0° 28° (NNE) 3,227 7.7 -25.0°
